Weatherford, OK

7:13 AM CDT on September 22, 2017 (GMT -0500)
Weatherford

Weather History for KOJA - January, 2014

Change the Weather History Date:

Friday, January 24, 2014

  Actual Average (KJWG) Record (KJWG)
Temperature  
Mean Temperature 28 °F -  
Max Temperature 46 °F 51 °F 77 °F (1981)
Min Temperature 10 °F 27 °F 1 °F (1963)
Degree Days  
Heating Degree Days 37    
Moisture  
Dew Point 9 °F    
Average Humidity 46    
Maximum Humidity 62    
Minimum Humidity 32    
Precipitation  
Precipitation 0.00 in - - ()
Sea Level Pressure  
Sea Level Pressure 30.38 in    
Wind  
Wind Speed 8 mph (SW)    
Max Wind Speed 22 mph    
Max Gust Speed 31 mph    
Visibility 10 miles    
Events      
Averages and records for this station are not official NWS values.
T = Trace of Precipitation, MM = Missing Value Source: NWS Daily Summary

Daily Weather History Graph

Daily Weather History Graph

Search for Another Location

Airport or City:

Trip Planner

Search our weather history database for the weather conditions in past years. The results will help you decide how hot, cold, wet, or windy it might be!

Date:

Astronomy

Jan. 24, 2014 Rise Set
Actual Time 7:39 AM CST 5:54 PM CST
Civil Twilight 7:12 AM CST 6:21 PM CST
Nautical Twilight 6:41 AM CST 6:52 PM CST
Astronomical Twilight 6:11 AM CST 7:22 PM CST
Moon 1:11 AM CST (1/24) 12:11 PM CST (1/24)
Length of Visible Light 11h 09m
Length of Day
10h 14m
Last Quarter, 44% of the Moon is Illuminated
Jan 24
Last Quarter
Jan 30
New
Feb 6
First Quarter
Feb 14
Full
Feb 22
Last Quarter

Hourly Weather History & Observations

Time (CST) Temp. Windchill Dew Point Humidity Pressure Visibility Wind Dir Wind Speed Gust Speed Precip Events Conditions
12:15 AM 10.4 °F - -2.2 °F 57% 30.74 in 10.0 mi Calm Calm - N/A   Clear
12:35 AM 10.4 °F - -0.4 °F 62% 30.74 in 10.0 mi Calm Calm - N/A   Clear
12:55 AM 10.4 °F - -0.4 °F 62% 30.74 in 10.0 mi Calm Calm - N/A   Clear
1:15 AM 10.4 °F - -0.4 °F 62% 30.73 in 10.0 mi Calm Calm - N/A   Clear
1:35 AM 10.4 °F 4.0 °F -0.4 °F 62% 30.72 in 10.0 mi WSW 3.5 mph - N/A   Clear
1:55 AM 10.4 °F - -0.4 °F 62% 30.71 in 10.0 mi Calm Calm - N/A   Clear
2:15 AM 10.4 °F - -0.4 °F 62% 30.70 in 10.0 mi Calm Calm - N/A   Clear
2:35 AM 10.4 °F 4.0 °F -0.4 °F 62% 30.69 in 10.0 mi SW 3.5 mph - N/A   Clear
2:55 AM 12.2 °F 2.9 °F -2.2 °F 53% 30.68 in 10.0 mi SW 5.8 mph - N/A   Clear
3:15 AM 12.2 °F 2.9 °F -2.2 °F 53% 30.67 in 10.0 mi WSW 5.8 mph - N/A   Clear
3:35 AM 12.2 °F 2.9 °F -2.2 °F 53% 30.66 in 10.0 mi SW 5.8 mph - N/A   Clear
3:55 AM 12.2 °F 6.1 °F -0.4 °F 57% 30.65 in 10.0 mi SW 3.5 mph - N/A   Clear
4:15 AM 12.2 °F 2.9 °F -0.4 °F 57% 30.64 in 10.0 mi SSW 5.8 mph - N/A   Clear
4:35 AM 10.4 °F 0.8 °F -0.4 °F 62% 30.63 in 10.0 mi SSW 5.8 mph - N/A   Clear
4:55 AM 12.2 °F 2.9 °F -0.4 °F 57% 30.61 in 10.0 mi SW 5.8 mph - N/A   Clear
5:15 AM 12.2 °F 2.9 °F -0.4 °F 57% 30.61 in 10.0 mi SSW 5.8 mph - N/A   Clear
5:35 AM 12.2 °F 2.9 °F -0.4 °F 57% 30.60 in 10.0 mi SW 5.8 mph - N/A   Clear
5:55 AM 14.0 °F 2.9 °F -0.4 °F 53% 30.58 in 10.0 mi SW 8.1 mph - N/A   Clear
6:15 AM 14.0 °F 1.2 °F -0.4 °F 53% 30.56 in 10.0 mi SW 10.4 mph - N/A   Clear
6:35 AM 14.0 °F 1.2 °F -0.4 °F 53% 30.56 in 10.0 mi SW 10.4 mph - N/A   Clear
6:55 AM 14.0 °F 2.0 °F 1.4 °F 57% 30.56 in 10.0 mi SW 9.2 mph - N/A   Clear
7:15 AM 12.2 °F 1.7 °F 1.4 °F 62% 30.56 in 10.0 mi SSW 6.9 mph - N/A   Clear
7:35 AM 14.0 °F 2.9 °F 1.4 °F 57% 30.55 in 10.0 mi SW 8.1 mph - N/A   Clear
7:55 AM 14.0 °F -0.2 °F 1.4 °F 57% 30.54 in 10.0 mi SW 12.7 mph - N/A   Clear
8:15 AM 14.0 °F -0.8 °F 1.4 °F 57% 30.52 in 10.0 mi SW 13.8 mph - N/A   Clear
8:35 AM 15.8 °F 2.1 °F 3.2 °F 58% 30.52 in 10.0 mi SSW 12.7 mph 17.3 mph N/A   Clear
8:55 AM 17.6 °F 3.7 °F 3.2 °F 53% 30.51 in 10.0 mi SSW 13.8 mph 18.4 mph N/A   Clear
9:15 AM 21.2 °F 10.1 °F 5.0 °F 50% 30.51 in 10.0 mi SW 10.4 mph 20.7 mph N/A   Clear
9:35 AM 21.2 °F 7.3 °F 3.2 °F 46% 30.50 in 10.0 mi SW 16.1 mph 23.0 mph N/A   Clear
9:55 AM 23.0 °F 9.2 °F 5.0 °F 46% 30.48 in 10.0 mi SW 17.3 mph 26.5 mph N/A   Clear
10:15 AM 26.6 °F 13.8 °F 5.0 °F 40% 30.47 in 10.0 mi SSW 17.3 mph 26.5 mph N/A   Clear
10:35 AM 28.4 °F 15.1 °F 8.6 °F 43% 30.46 in 10.0 mi SW 20.7 mph 26.5 mph N/A   Clear
10:55 AM 30.2 °F 17.4 °F 8.6 °F 40% 30.43 in 10.0 mi SSW 20.7 mph 31.1 mph N/A   Clear
11:15 AM 30.2 °F 18.1 °F 10.4 °F 44% 30.41 in 10.0 mi SSW 18.4 mph 29.9 mph N/A   Clear
11:35 AM 32.0 °F 20.1 °F 12.2 °F 44% 30.42 in 10.0 mi SW 19.6 mph 27.6 mph N/A   Clear
11:55 AM 33.8 °F 23.5 °F 12.2 °F 41% 30.39 in 10.0 mi SW 16.1 mph 27.6 mph N/A   Clear
12:15 PM 35.6 °F 25.5 °F 14.0 °F 41% 30.38 in 10.0 mi SW 17.3 mph 27.6 mph N/A   Clear
12:35 PM 35.6 °F 24.5 °F 14.0 °F 41% 30.35 in 10.0 mi SW 20.7 mph 26.5 mph N/A   Clear
12:55 PM 37.4 °F 26.9 °F 15.8 °F 41% 30.33 in 10.0 mi SW 20.7 mph 31.1 mph N/A   Clear
1:15 PM 39.2 °F 29.8 °F 17.6 °F 42% 30.30 in 10.0 mi SW 18.4 mph 28.8 mph N/A   Clear
1:35 PM 41.0 °F 31.4 °F 17.6 °F 39% 30.28 in 10.0 mi SW 21.9 mph 31.1 mph N/A   Clear
1:55 PM 41.0 °F 32.2 °F 17.6 °F 39% 30.27 in 10.0 mi SW 18.4 mph 28.8 mph N/A   Clear
2:15 PM 42.8 °F 34.0 °F 17.6 °F 36% 30.26 in 10.0 mi SW 20.7 mph 31.1 mph N/A   Clear
2:35 PM 42.8 °F 34.3 °F 17.6 °F 36% 30.24 in 10.0 mi SW 19.6 mph 27.6 mph N/A   Clear
2:55 PM 44.6 °F 36.4 °F 17.6 °F 34% 30.23 in 10.0 mi SW 20.7 mph 28.8 mph N/A   Clear
3:15 PM 44.6 °F 36.9 °F 17.6 °F 34% 30.22 in 10.0 mi SW 18.4 mph 26.5 mph N/A   Clear
3:35 PM 44.6 °F 37.4 °F 19.4 °F 37% 30.21 in 10.0 mi SW 16.1 mph 29.9 mph N/A   Clear
3:55 PM 44.6 °F 36.9 °F 19.4 °F 37% 30.20 in 10.0 mi SW 18.4 mph 28.8 mph N/A   Clear
4:15 PM 46.4 °F 38.7 °F 17.6 °F 32% 30.19 in 10.0 mi SW 20.7 mph 27.6 mph N/A   Clear
4:35 PM 46.4 °F 40.1 °F 17.6 °F 32% 30.19 in 10.0 mi SW 15.0 mph 25.3 mph N/A   Clear
4:55 PM 46.4 °F 40.4 °F 17.6 °F 32% 30.18 in 10.0 mi SW 13.8 mph 23.0 mph N/A   Clear
5:15 PM 46.4 °F 40.1 °F 17.6 °F 32% 30.16 in 10.0 mi SSW 15.0 mph 19.6 mph N/A   Clear
5:35 PM 44.6 °F 38.4 °F 17.6 °F 34% 30.15 in 10.0 mi SSW 12.7 mph 18.4 mph N/A   Clear
5:55 PM 44.6 °F 38.4 °F 17.6 °F 34% 30.15 in 10.0 mi SSW 12.7 mph - N/A   Clear
6:15 PM 42.8 °F 37.0 °F 17.6 °F 36% 30.15 in 10.0 mi SSW 10.4 mph 18.4 mph N/A   Clear
6:35 PM 41.0 °F 33.9 °F 15.8 °F 36% 30.16 in 10.0 mi SSW 12.7 mph - N/A   Clear
6:55 PM 41.0 °F 33.9 °F 15.8 °F 36% 30.15 in 10.0 mi SSW 12.7 mph 18.4 mph N/A   Clear
7:15 PM 39.2 °F 31.6 °F 15.8 °F 39% 30.14 in 10.0 mi SSW 12.7 mph 19.6 mph N/A   Clear
7:35 PM 39.2 °F 31.2 °F 14.0 °F 36% 30.14 in 10.0 mi SSW 13.8 mph - N/A   Clear
7:55 PM 37.4 °F 29.3 °F 14.0 °F 38% 30.14 in 10.0 mi SSW 12.7 mph 19.6 mph N/A   Clear
8:15 PM 37.4 °F 28.9 °F 14.0 °F 38% 30.13 in 10.0 mi SSW 13.8 mph 21.9 mph N/A   Clear
8:35 PM 37.4 °F 29.3 °F 14.0 °F 38% 30.12 in 10.0 mi SW 12.7 mph 18.4 mph N/A   Clear
8:55 PM 37.4 °F 28.9 °F 14.0 °F 38% 30.12 in 10.0 mi SW 13.8 mph - N/A   Clear
9:15 PM 37.4 °F 29.8 °F 14.0 °F 38% 30.11 in 10.0 mi SSW 11.5 mph 16.1 mph N/A   Clear
9:35 PM 35.6 °F 27.5 °F 14.0 °F 41% 30.10 in 10.0 mi SSW 11.5 mph 18.4 mph N/A   Clear
9:55 PM 35.6 °F 27.5 °F 14.0 °F 41% 30.10 in 10.0 mi SSW 11.5 mph - N/A   Clear
10:15 PM 37.4 °F 30.8 °F 14.0 °F 38% 30.10 in 10.0 mi SW 9.2 mph - N/A   Clear
10:35 PM 37.4 °F 30.8 °F 14.0 °F 38% 30.10 in 10.0 mi SW 9.2 mph - N/A   Clear
10:55 PM 37.4 °F 30.3 °F 14.0 °F 38% 30.10 in 10.0 mi SW 10.4 mph - N/A   Clear
11:15 PM 37.4 °F 30.8 °F 14.0 °F 38% 30.09 in 10.0 mi SW 9.2 mph - N/A   Clear
11:35 PM 37.4 °F 32.1 °F 15.8 °F 41% 30.09 in 10.0 mi WSW 6.9 mph - N/A   Clear
11:55 PM 37.4 °F 30.8 °F 15.8 °F 41% 30.08 in 10.0 mi SW 9.2 mph - N/A   Clear